This is the latest recevied weather packets stored in our database for station/object DB0OHL. If no packets are shown the sender has not sent any weather packets the latest 1 day(s).
| Time | Temp. | Humidity | Pressure | Rain* | Wind** | Luminosity | Snow |
|---|---|---|---|---|---|---|---|
| 1778089565 | 7.22° C | 99% | 1009 hPa | 0 mm | - | - | - |
| 1778087155 | 7.78° C | 99% | 1008.7 hPa | 0.25 mm | - | - | - |
| 1778085950 | 7.78° C | 99% | 1008.4 hPa | 0.51 mm | - | - | - |
| 1778084745 | 7.78° C | 99% | 1008.5 hPa | 0.51 mm | - | - | - |
| 1778079322 | 7.78° C | 99% | 1008.1 hPa | 0 mm | - | - | - |
| 1778072152 | 7.22° C | 99% | 1007.8 hPa | 0.51 mm | - | - | - |
| 1778069742 | 7.22° C | 99% | 1007.7 hPa | 1.27 mm | - | - | - |
| 1778068537 | 7.22° C | 99% | 1007.5 hPa | 1.27 mm | - | - | - |
| 1778067332 | 7.22° C | 99% | 1007.3 hPa | 1.52 mm | - | - | - |
| 1778066127 | 7.22° C | 99% | 1007.3 hPa | 1.52 mm | - | - | - |
| 1778064922 | 7.22° C | 99% | 1007.2 hPa | 1.52 mm | - | - | - |
| 1778063717 | 7.22° C | 99% | 1007.1 hPa | 1.27 mm | - | - | - |
| 1778062572 | 7.22° C | 99% | 1006.9 hPa | 1.02 mm | - | - | - |
| 1778061367 | 7.22° C | 99% | 1006.7 hPa | 1.27 mm | - | - | - |
| 1778058354 | 7.78° C | 99% | 1006.4 hPa | 0.51 mm | - | - | - |
| 1778057149 | 8.33° C | 99% | 1006.3 hPa | 0 mm | - | - | - |
| 1778055944 | 7.78° C | 99% | 1006.2 hPa | 0.25 mm | - | - | - |
| 1778054739 | 8.33° C | 99% | 1006.3 hPa | 1.02 mm | - | - | - |
| 1778053534 | 8.33° C | 99% | 1006.1 hPa | 1.52 mm | - | - | - |
| 1778051124 | 8.33° C | 99% | 1006 hPa | 1.78 mm | - | - | - |
| 1778049919 | 8.33° C | 99% | 1005.9 hPa | 1.52 mm | - | - | - |
| 1778048774 | 8.33° C | 99% | 1005.8 hPa | 1.27 mm | - | - | - |
| 1778047569 | 8.33° C | 99% | 1005.6 hPa | 1.27 mm | - | - | - |
| 1778046966 | 8.33° C | 99% | 1005.6 hPa | 1.02 mm | - | - | - |
| 1778046364 | 8.33° C | 99% | 1005.8 hPa | 1.27 mm | - | - | - |
* Rain latest hour (hover to see other rain measurements)
** Current wind speed in m/s (hover to see current wind gust speed)